This is the latest recevied weather packets stored in our database for station/object OK2ZA-6. If no packets are shown the sender has not sent any weather packets the latest 10 day(s).
| Time | Temp. | Humidity | Pressure | Rain* | Wind** | Luminosity | Snow |
|---|---|---|---|---|---|---|---|
| 1777894203 | 21.11° C | 48% | 1014.2 hPa | 0 mm | - | - | - |
| 1777893603 | 21.11° C | 52% | 1014.3 hPa | 0 mm | - | - | - |
| 1777893003 | 20.56° C | 52% | 1014.4 hPa | 0 mm | - | - | - |
| 1777892403 | 20° C | 53% | 1014.5 hPa | 0 mm | - | - | - |
| 1777891803 | 20° C | 55% | 1014.6 hPa | 0 mm | - | - | - |
| 1777891204 | 20° C | 54% | 1014.8 hPa | 0 mm | - | - | - |
| 1777890603 | 20° C | 56% | 1014.9 hPa | 0 mm | - | - | - |
| 1777890004 | 18.89° C | 58% | 1014.9 hPa | 0 mm | - | - | - |
| 1777889404 | 18.89° C | 55% | 1015 hPa | 0 mm | - | - | - |
| 1777888803 | 18.33° C | 57% | 1015.2 hPa | 0 mm | - | - | - |
| 1777888203 | 18.33° C | 57% | 1015.2 hPa | 0 mm | - | - | - |
| 1777887603 | 18.33° C | 56% | 1015.2 hPa | 0 mm | - | - | - |
| 1777887003 | 17.78° C | 58% | 1015.3 hPa | 0 mm | - | - | - |
| 1777886403 | 17.78° C | 59% | 1015.2 hPa | 0 mm | - | - | - |
| 1777885803 | 17.78° C | 57% | 1015.3 hPa | 0 mm | - | - | - |
| 1777885203 | 17.22° C | 58% | 1015.2 hPa | 0 mm | - | - | - |
| 1777884604 | 17.22° C | 58% | 1015.2 hPa | 0 mm | - | - | - |
| 1777884003 | 17.22° C | 57% | 1015.1 hPa | 0 mm | - | - | - |
| 1777883403 | 16.67° C | 57% | 1015 hPa | 0 mm | - | - | - |
| 1777882803 | 16.67° C | 59% | 1015.1 hPa | 0 mm | - | - | - |
| 1777882203 | 16.67° C | 58% | 1015 hPa | 0 mm | - | - | - |
| 1777881603 | 16.11° C | 61% | 1014.9 hPa | 0 mm | - | - | - |
| 1777881003 | 16.11° C | 59% | 1014.9 hPa | 0 mm | - | - | - |
| 1777880403 | 15.56° C | 61% | 1014.9 hPa | 0 mm | - | - | - |
| 1777879803 | 15° C | 61% | 1014.8 hPa | 0 mm | - | - | - |
* Rain latest hour (hover to see other rain measurements)
** Current wind speed in m/s (hover to see current wind gust speed)